Location: Unspecified
(41.1637°N, 24.2901°E)
Time: 15:29:32
(UTC+02:00)

X-37B - Pass Details

Date: 11 March 2021
Orbit: 380 x 394 km, 45.0° (Epoch: 07 April)

Event Time Altitude Azimuth Distance (km) Brightness Sun altitude
Rises 18:40:44 0° 227° (SW) 2,260 5.0 -15.0°
Reaches altitude 10° 18:42:52 10° 218° (SW) 1,411 3.8 -15.4°
Maximum altitude 18:45:50 37° 150° (SSE) 626 1.3 -16.0°
Enters shadow 18:46:05 36° 138° (SE) 634 1.2 -16.0°
